Hourly Data Report for September 20, 2017

All times are specified in Local Standard Time (LST). Add 1 hour to adjust for Daylight Saving Time where and when it is observed.

ALERT CLIMATE
NUNAVUT

82°30'00.000" N
62°20'00.000" W
65.40 m
2400305
71355
ZLT

Download Data

Hourly Data (September 2017)
Hourly Data Report for September 20, 2017
Temp Definition
°C
Dew Point Temp Definition
°C
Rel Hum Definition
%
Wind Dir Definition
10's deg

Wind Spd Definition
km/h
Visibility Definition
km
Stn Press Definition
kPa
Hmdx Definition


Wind Chill Definition


Weather Definition


TIME
00:00 -11.4 -15.9 69 20 4   101.85   -14 LegendNANA
01:00 -8.2 -14.7 60 23 15   101.78   -15 LegendNANA
02:00 -6.5 -13.2 59 24 17   101.76   -13 LegendNANA
03:00 -7.2 -12.8 64 25 29   101.71   -16 LegendNANA
04:00 -7.9 -12.4 70 28 23   101.73   -16 LegendNANA
05:00 -6.3 -12.0 64 27 22   101.75   -14 LegendNANA
06:00 -6.5 -11.8 66 26 24   101.78   -14 LegendNANA
07:00 -6.3 -11.6 66 27 26   101.79   -14 LegendNANA
08:00 -6.8 -11.9 67 27 20   101.82   -14 LegendNANA
09:00 -5.5 -11.6 63 27 21   101.81   -12 LegendNANA
10:00 -6.7 -11.8 67 28 22   101.79   -14 LegendNANA
11:00 -5.5 -11.2 64 25 30   101.75   -14 LegendNANA
12:00 -5.8 -10.9 67 24 16   101.73   -12 LegendNANA
13:00 -3.3 -10.9 55 20 21   101.70   -10 LegendNANA
14:00 -3.7 -11.2 56 24 18   101.68   -10 LegendNANA
15:00 -3.0 -10.4 57 25 24   101.63   -10 LegendNANA
16:00 -4.2 -10.2 63 26 35   101.61   -13 LegendNANA
17:00 -4.1 -10.0 63 26 34   101.61   -12 LegendNANA
18:00 -4.9 -10.0 67 26 36   101.67   -14 LegendNANA
19:00 -7.0 -11.5 70 27 11   101.75   -12 LegendNANA
20:00 -8.6 -12.1 76 27 12   101.75   -14 LegendNANA
21:00 -7.8 -12.1 71 27 17   101.75   -14 LegendNANA
22:00 -9.5 -13.1 75 29 12   101.77   -15 LegendNANA
23:00 -8.9 -12.3 76 28 7   101.75   -13 LegendNANA

Notes on Data Quality.

Legend

  • E = Estimated
  • M = Missing
  • NA = Not Available
  • ‡ = Partner data that is not subject to review by the National Climate Archives
Date modified: